Wausau, WI

3:59 AM CDT on June 25, 2017 (GMT -0500)
Wausau Downtown

Weather History for KAUW - June, 2013

Change the Weather History Date:

Wednesday, June 26, 2013

  Actual Average Record
Temperature  
Mean Temperature 76 °F 68 °F  
Max Temperature 84 °F 79 °F 95 °F (1933)
Min Temperature 68 °F 57 °F 39 °F (1902)
Degree Days  
Heating Degree Days 0 1  
Month to date heating degree days 86 83  
Since 1 June heating degree days 86 83  
Since 1 July heating degree days 8252 8243  
Cooling Degree Days 11 4  
Month to date cooling degree days 69 66  
Year to date cooling degree days 106 85  
Since 1 June cooling degree days 69 66  
Growing Degree Days 26 (Base 50)    
Moisture  
Dew Point 69 °F    
Average Humidity 79    
Maximum Humidity 100    
Minimum Humidity 58    
Precipitation  
Precipitation 0.18 in 0.14 in 2.94 in (1934)
Month to date precipitation 5.33 3.79  
Year to date precipitation 19.80 13.70  
Snow  
Snow 0.00 in 0.00 in 0.00 in ()
Month to date snowfall 0.0 0.0  
Since 1 June snowfall 0.0  
Since 1 July snowfall 78.8 59.6  
Snow Depth 0.00 in    
Sea Level Pressure  
Sea Level Pressure 29.75 in    
Wind  
Wind Speed 5 mph (SSE)    
Max Wind Speed 13 mph    
Max Gust Speed 17 mph    
Visibility 6 miles    
Events Fog , Rain , Thunderstorm    
T = Trace of Precipitation, MM = Missing Value Source: NWS Daily Summary

Daily Weather History Graph

Daily Weather History Graph

Search for Another Location

Airport or City:

Trip Planner

Search our weather history database for the weather conditions in past years. The results will help you decide how hot, cold, wet, or windy it might be!

Date:

Astronomy

Jun. 26, 2013 Rise Set
Actual Time 5:13 AM CDT 8:49 PM CDT
Civil Twilight 4:36 AM CDT 9:26 PM CDT
Nautical Twilight 3:46 AM CDT 10:15 PM CDT
Astronomical Twilight 2:41 AM CDT 11:20 PM CDT
Moon 10:59 PM CDT (6/26) 9:15 AM CDT (6/26)
Length of Visible Light 16h 49m
Length of Day
15h 35m
Waning Gibbous, 85% of the Moon is Illuminated
Jun 26
Waning Gibbous
Jun 29
Last Quarter
Jul 8
New
Jul 15
First Quarter
Jul 22
Full

Hourly Weather History & Observations

Time (CDT) Temp. Heat Index Dew Point Humidity Pressure Visibility Wind Dir Wind Speed Gust Speed Precip Events Conditions
12:54 AM 70.0 °F - 68.0 °F 93% 29.78 in 10.0 mi SSE 4.6 mph - N/A   Clear
1:31 AM 69.8 °F - 68.0 °F 94% 29.79 in 10.0 mi Calm Calm - N/A   Mostly Cloudy
1:54 AM 70.0 °F - 66.9 °F 90% 29.77 in 10.0 mi SSE 3.5 mph - N/A   Overcast
2:27 AM 69.8 °F - 66.2 °F 88% 29.78 in 10.0 mi Calm Calm - N/A   Mostly Cloudy
2:54 AM 70.0 °F - 68.0 °F 93% 29.77 in 10.0 mi SE 3.5 mph - N/A   Overcast
3:23 AM 69.8 °F - 68.0 °F 94% 29.77 in 10.0 mi SSE 3.5 mph - N/A   Overcast
3:54 AM 69.1 °F - 68.0 °F 96% 29.76 in 10.0 mi SE 4.6 mph - N/A   Overcast
4:54 AM 70.0 °F - 68.0 °F 93% 29.75 in 8.0 mi ESE 4.6 mph - N/A   Overcast
5:11 AM 69.8 °F - 69.8 °F 100% 29.75 in 6.0 mi East 4.6 mph - N/A   Overcast
5:36 AM 69.8 °F - 69.8 °F 100% 29.75 in 1.8 mi ENE 4.6 mph - N/A   Overcast
5:47 AM 69.8 °F - 69.8 °F 100% 29.75 in 0.2 mi ENE 3.5 mph - N/A Fog Fog
5:54 AM 69.1 °F - 69.1 °F 100% 29.74 in 0.2 mi ESE 3.5 mph - N/A Fog Fog
6:54 AM 70.0 °F - 70.0 °F 100% 29.75 in 0.2 mi ESE 6.9 mph - N/A Fog Fog
7:25 AM 69.8 °F - 69.8 °F 100% 29.76 in 1.5 mi SE 9.2 mph - N/A   Overcast
7:37 AM 69.8 °F - 69.8 °F 100% 29.77 in 0.8 mi SE 8.1 mph - N/A   Overcast
7:54 AM 69.1 °F - 69.1 °F 100% 29.75 in 0.8 mi East 8.1 mph - N/A   Overcast
8:06 AM 69.8 °F - 69.8 °F 100% 29.76 in 1.5 mi ESE 6.9 mph - N/A   Overcast
8:18 AM 69.8 °F - 69.8 °F 100% 29.76 in 2.5 mi SE 5.8 mph - N/A   Overcast
8:27 AM 69.8 °F - 69.8 °F 100% 29.76 in 4.0 mi SE 4.6 mph - N/A   Overcast
8:54 AM 70.0 °F - 69.1 °F 97% 29.75 in 6.0 mi SE 9.2 mph - N/A   Overcast
9:41 AM 73.4 °F - 69.8 °F 88% 29.76 in 6.0 mi SE 9.2 mph - N/A   Overcast
9:54 AM 73.9 °F - 70.0 °F 87% 29.75 in 6.0 mi South 4.6 mph - N/A   Overcast
10:45 AM 73.4 °F - 69.8 °F 88% 29.76 in 4.0 mi SSE 5.8 mph - N/A   Overcast
10:54 AM 75.0 °F - 70.0 °F 84% 29.75 in 4.0 mi South 6.9 mph - N/A   Haze
11:54 AM 75.0 °F - 70.0 °F 84% 29.75 in 4.0 mi Calm Calm - N/A   Haze
12:07 PM 75.2 °F - 69.8 °F 83% 29.76 in 5.0 mi Calm Calm - N/A   Haze
12:54 PM 79.0 °F - 70.0 °F 74% 29.74 in 7.0 mi Calm Calm - N/A   Clear
1:54 PM 82.9 °F 85.8 °F 68.0 °F 60% 29.72 in 10.0 mi South 8.1 mph - N/A   Clear
2:54 PM 82.9 °F 85.0 °F 66.0 °F 56% 29.73 in 10.0 mi South 10.4 mph 17.3 mph N/A   Scattered Clouds
3:54 PM 82.9 °F 85.8 °F 68.0 °F 60% 29.73 in 10.0 mi SSW 11.5 mph - N/A   Partly Cloudy
4:54 PM 82.0 °F 84.1 °F 66.0 °F 58% 29.73 in 10.0 mi South 9.2 mph - N/A   Partly Cloudy
5:35 PM 80.6 °F 82.7 °F 66.2 °F 61% 29.74 in 10.0 mi South 8.1 mph - N/A Thunderstorm Partly Cloudy
5:54 PM 78.1 °F - 68.0 °F 71% 29.71 in 8.0 mi SSE 8.1 mph - 0.00 in Rain , Thunderstorm Light Rain
6:08 PM 78.8 °F - 68.0 °F 69% 29.71 in 8.0 mi SE 8.1 mph - 0.01 in Rain Light Rain
6:54 PM 78.1 °F - 66.9 °F 68% 29.72 in 10.0 mi South 6.9 mph - 0.01 in Thunderstorm Clear
7:28 PM 73.4 °F - 68.0 °F 83% 29.76 in 2.5 mi SW 10.4 mph - 0.07 in Rain Rain
7:35 PM 73.4 °F - 69.8 °F 88% 29.76 in 5.0 mi WSW 6.9 mph - 0.08 in Rain Light Rain
7:46 PM 71.6 °F - 69.8 °F 94% 29.76 in 9.0 mi North 4.6 mph - 0.08 in Rain , Thunderstorm Light Thunderstorms and Rain
7:54 PM 72.0 °F - 70.0 °F 93% 29.75 in 2.5 mi South 4.6 mph - 0.10 in Rain , Thunderstorm Thunderstorms and Rain
8:00 PM 71.6 °F - 69.8 °F 94% 29.75 in 3.0 mi South 6.9 mph - 0.01 in Rain Light Rain
8:15 PM 71.6 °F - 69.8 °F 94% 29.75 in 6.0 mi South 8.1 mph - 0.04 in Rain , Thunderstorm Rain
8:30 PM 71.6 °F - 68.0 °F 88% 29.74 in 6.0 mi SSW 5.8 mph - 0.06 in Rain Light Rain
8:54 PM 71.1 °F - 68.0 °F 90% 29.74 in 10.0 mi Calm Calm - 0.06 in   Mostly Cloudy
9:54 PM 69.1 °F - 68.0 °F 96% 29.76 in 10.0 mi East 4.6 mph - N/A   Scattered Clouds
10:54 PM 69.1 °F - 68.0 °F 96% 29.77 in 9.0 mi Calm Calm - N/A   Partly Cloudy
11:54 PM 69.1 °F - 68.0 °F 96% 29.77 in 10.0 mi Calm Calm - 0.01 in   Mostly Cloudy